Weather History for KMPZ - April, 2013

Change the Weather History Date:

Tuesday, April 9, 2013

  Actual Average Record
Temperature  
Mean Temperature 69 °F -  
Max Temperature 82 °F 58 °F 83 °F (1977)
Min Temperature 55 °F 35 °F 20 °F (1989)
Cooling Degree Days 4    
Growing Degree Days 19 (Base 50)    
Moisture  
Dew Point 55 °F    
Average Humidity 59    
Maximum Humidity 75    
Minimum Humidity 38    
Precipitation  
Precipitation 0.00 in - - ()
Sea Level Pressure  
Sea Level Pressure 29.77 in    
Wind  
Wind Speed 11 mph (SSE)    
Max Wind Speed 23 mph    
Max Gust Speed 32 mph    
Visibility 10 miles    
Events      
Averages and records for this station are not official NWS values.
T = Trace of Precipitation, MM = Missing Value Source: NWS Daily Summary

Daily Weather History Graph

Daily Weather History Graph

Search for Another Location

Airport or City:

Trip Planner

Search our weather history database for the weather conditions in past years. The results will help you decide how hot, cold, wet, or windy it might be!

Date:

Astronomy

Apr. 09, 2013 Rise Set
Actual Time 6:35 AM CDT 7:39 PM CDT
Civil Twilight 6:07 AM CDT 8:07 PM CDT
Nautical Twilight 5:34 AM CDT 8:41 PM CDT
Astronomical Twilight 4:59 AM CDT 9:16 PM CDT
Moon 5:59 AM CDT (4/9) 7:15 PM CDT (4/9)
Length of Visible Light 13h 59m
Length of Day
13h 03m
Waning Crescent, 1% of the Moon is Illuminated
Apr 9
Waning Crescent
Apr 10
New
Apr 18
First Quarter
Apr 25
Full
May 2
Last Quarter

Hourly Weather History & Observations

Time (CDT) Temp. Heat Index Dew Point Humidity Pressure Visibility Wind Dir Wind Speed Gust Speed Precip Events Conditions
12:15 AM 64.4 °F - 55.8 °F 73% 29.81 in 10.0 mi ESE 8.1 mph - N/A   Scattered Clouds
12:35 AM 67.1 °F - 56.3 °F 68% 29.80 in 10.0 mi ESE 12.7 mph - N/A   Mostly Cloudy
12:55 AM 67.5 °F - 55.9 °F 66% 29.80 in 10.0 mi SE 10.4 mph - N/A   Mostly Cloudy
1:15 AM 67.6 °F - 55.8 °F 66% 29.79 in 10.0 mi SE 10.4 mph - N/A   Mostly Cloudy
1:35 AM 68.2 °F - 55.8 °F 64% 29.79 in 10.0 mi SE 11.5 mph - N/A   Overcast
1:55 AM 68.9 °F - 55.8 °F 63% 29.78 in 10.0 mi SE 10.4 mph - N/A   Overcast
2:15 AM 68.2 °F - 55.4 °F 64% 29.78 in 10.0 mi SE 11.5 mph - N/A   Mostly Cloudy
2:35 AM 67.3 °F - 55.4 °F 66% 29.78 in 10.0 mi SE 6.9 mph - N/A   Mostly Cloudy
2:55 AM 67.3 °F - 55.4 °F 66% 29.78 in 10.0 mi SSE 9.2 mph - N/A   Mostly Cloudy
3:15 AM 67.3 °F - 55.6 °F 66% 29.78 in 10.0 mi SSE 10.4 mph - N/A   Overcast
3:35 AM 67.1 °F - 55.6 °F 66% 29.77 in 10.0 mi SSE 9.2 mph - N/A   Mostly Cloudy
3:55 AM 67.1 °F - 55.4 °F 66% 29.77 in 10.0 mi SE 8.1 mph - N/A   Mostly Cloudy
4:15 AM 66.6 °F - 55.4 °F 67% 29.77 in 10.0 mi SSE 8.1 mph - N/A   Scattered Clouds
4:35 AM 66.2 °F - 55.6 °F 69% 29.77 in 10.0 mi ESE 5.8 mph - N/A   Mostly Cloudy
4:55 AM 66.2 °F - 55.6 °F 69% 29.77 in 10.0 mi SE 6.9 mph - N/A   Overcast
5:15 AM 66.6 °F - 55.6 °F 68% 29.77 in 10.0 mi ESE 6.9 mph - N/A   Overcast
5:35 AM 66.2 °F - 55.8 °F 69% 29.77 in 10.0 mi ESE 5.8 mph - N/A   Overcast
5:55 AM 65.5 °F - 55.8 °F 71% 29.77 in 10.0 mi ESE 8.1 mph - N/A   Overcast
6:15 AM 66.2 °F - 55.8 °F 69% 29.78 in 10.0 mi SE 9.2 mph - N/A   Overcast
6:35 AM 66.6 °F - 55.8 °F 68% 29.77 in 10.0 mi SE 10.4 mph - N/A   Overcast
6:55 AM 66.6 °F - 55.8 °F 68% 29.78 in 10.0 mi SE 10.4 mph - N/A   Overcast
7:15 AM 66.7 °F - 55.9 °F 68% 29.78 in 10.0 mi SE 6.9 mph - N/A   Overcast
7:35 AM 66.9 °F - 55.9 °F 68% 29.78 in 10.0 mi ESE 8.1 mph - N/A   Overcast
7:55 AM 66.9 °F - 56.1 °F 68% 29.78 in 10.0 mi ESE 8.1 mph - N/A   Overcast
8:15 AM 67.5 °F - 56.1 °F 67% 29.78 in 10.0 mi SE 9.2 mph - N/A   Overcast
8:35 AM 68.0 °F - 56.3 °F 66% 29.78 in 10.0 mi SE 12.7 mph - N/A   Overcast
8:55 AM 68.5 °F - 56.5 °F 65% 29.77 in 10.0 mi SSE 10.4 mph - N/A   Overcast
9:15 AM 69.8 °F - 56.5 °F 63% 29.76 in 10.0 mi SSE 12.7 mph - N/A   Mostly Cloudy
9:35 AM 71.1 °F - 56.7 °F 60% 29.75 in 10.0 mi South 13.8 mph - N/A   Scattered Clouds
9:55 AM 73.0 °F - 57.0 °F 57% 29.76 in 10.0 mi South 16.1 mph - N/A   Scattered Clouds
10:15 AM 72.3 °F - 57.0 °F 59% 29.77 in 10.0 mi South 15.0 mph - N/A   Mostly Cloudy
10:35 AM 73.4 °F - 57.4 °F 57% 29.78 in 10.0 mi South 13.8 mph 20.7 mph N/A   Mostly Cloudy
10:55 AM 72.5 °F - 57.2 °F 59% 29.78 in 10.0 mi SSW 12.7 mph 21.9 mph N/A   Overcast
11:15 AM 74.7 °F - 57.6 °F 55% 29.78 in 10.0 mi South 17.3 mph - N/A   Mostly Cloudy
11:35 AM 75.7 °F - 57.6 °F 53% 29.78 in 10.0 mi SSW 18.4 mph 23.0 mph N/A   Mostly Cloudy
11:55 AM 75.9 °F - 57.4 °F 52% 29.77 in 10.0 mi SSW 16.1 mph - N/A   Overcast
12:15 PM 76.5 °F - 57.6 °F 52% 29.77 in 10.0 mi SSW 19.6 mph 24.2 mph N/A   Overcast
12:35 PM 78.3 °F - 57.6 °F 49% 29.76 in 10.0 mi SSW 19.6 mph - N/A   Scattered Clouds
12:55 PM 79.0 °F - 56.8 °F 46% 29.75 in 10.0 mi SSW 21.9 mph 27.6 mph N/A   Clear
1:15 PM 79.7 °F - 57.2 °F 46% 29.75 in 10.0 mi SSW 23.0 mph 32.2 mph N/A   Clear
1:35 PM 79.9 °F - 57.2 °F 46% 29.75 in 10.0 mi SSW 20.7 mph 29.9 mph N/A   Clear
1:55 PM 80.6 °F 80.6 °F 56.5 °F 43% 29.75 in 10.0 mi SSW 21.9 mph 26.5 mph N/A   Clear
2:15 PM 81.0 °F 80.9 °F 56.5 °F 43% 29.74 in 10.0 mi SSW 15.0 mph 21.9 mph N/A   Mostly Cloudy
2:35 PM 81.3 °F 81.1 °F 55.9 °F 42% 29.75 in 10.0 mi South 16.1 mph 24.2 mph N/A   Mostly Cloudy
2:55 PM 81.5 °F 81.0 °F 55.0 °F 40% 29.75 in 10.0 mi SSW 13.8 mph 20.7 mph N/A   Mostly Cloudy
3:15 PM 82.4 °F 81.6 °F 54.3 °F 38% 29.75 in 10.0 mi South 17.3 mph 21.9 mph N/A   Scattered Clouds
3:35 PM 82.2 °F 81.4 °F 54.0 °F 38% 29.75 in 10.0 mi SW 15.0 mph - N/A   Scattered Clouds
3:55 PM 82.0 °F 81.4 °F 54.7 °F 39% 29.75 in 10.0 mi SSW 13.8 mph - N/A   Mostly Cloudy
4:15 PM 81.0 °F 80.6 °F 54.7 °F 40% 29.75 in 10.0 mi South 13.8 mph 17.3 mph N/A   Mostly Cloudy
4:35 PM 80.6 °F 80.4 °F 54.5 °F 40% 29.76 in 10.0 mi SSW 11.5 mph - N/A   Mostly Cloudy
4:55 PM 79.9 °F - 55.9 °F 44% 29.75 in 10.0 mi SSW 11.5 mph - N/A   Overcast
5:15 PM 82.0 °F 81.3 °F 54.3 °F 38% 29.75 in 10.0 mi SSW 12.7 mph - N/A   Mostly Cloudy
5:35 PM 80.6 °F 80.4 °F 54.9 °F 41% 29.76 in 10.0 mi SSW 10.4 mph - N/A   Scattered Clouds
5:55 PM 80.6 °F 80.5 °F 55.2 °F 42% 29.76 in 10.0 mi South 11.5 mph - N/A   Scattered Clouds
6:15 PM 79.7 °F - 55.9 °F 44% 29.76 in 10.0 mi South 13.8 mph - N/A   Clear
6:35 PM 79.2 °F - 55.2 °F 44% 29.75 in 10.0 mi SSE 13.8 mph - N/A   Clear
6:55 PM 78.3 °F - 55.0 °F 45% 29.75 in 10.0 mi South 10.4 mph - N/A   Clear
7:15 PM 76.5 °F - 55.6 °F 48% 29.75 in 10.0 mi SSE 8.1 mph - N/A   Clear
7:35 PM 74.8 °F - 56.3 °F 52% 29.76 in 10.0 mi SSE 5.8 mph - N/A   Clear
7:55 PM 72.7 °F - 56.3 °F 56% 29.76 in 10.0 mi Calm Calm - N/A   Clear
8:15 PM 64.6 °F - 54.3 °F 69% 29.78 in 7.0 mi NNE 11.5 mph 23.0 mph N/A   Clear
8:35 PM 62.1 °F - 53.2 °F 73% 29.79 in 5.0 mi NNE 13.8 mph - N/A   Haze
8:55 PM 61.7 °F - 52.7 °F 72% 29.80 in 5.0 mi NNE 10.4 mph - N/A   Haze
9:15 PM 61.0 °F - 52.0 °F 72% 29.80 in 7.0 mi NE 15.0 mph - N/A   Overcast
9:55 PM 60.4 °F - 51.3 °F 72% 29.82 in 7.0 mi NE 10.4 mph - N/A   Overcast
10:15 PM 59.7 °F - 50.9 °F 73% 29.82 in 7.0 mi NE 13.8 mph - N/A   Overcast
10:35 PM 58.5 °F - 50.2 °F 74% 29.82 in 7.0 mi ENE 13.8 mph - N/A   Overcast
10:55 PM 57.0 °F - 48.7 °F 74% 29.81 in 7.0 mi ENE 17.3 mph - N/A   Overcast
11:15 PM 56.5 °F - 48.6 °F 75% 29.80 in 7.0 mi ENE 15.0 mph - N/A   Overcast
11:55 PM 55.4 °F - 47.7 °F 75% 29.80 in 7.0 mi ENE 13.8 mph - N/A   Mostly Cloudy